When you browse on this site, cookies collect data to enhance your experience and personalize the content and advertising you see.
Visit our Privacy Policy to learn more. By continuing to use the site, you agree to this use of cookies and data.
  • en Suisse
  • Liste des pays
  • À 7 jours
  • Température de l'eau
  • Carte satellitaire
  • Carte météo
  • Widgets météo
  • user-avatar
    Se connecter

    Météo par heure à Talas

    Ce jour, 21 Mars, Jeudi

    Heure Température Précipitation Vent Pression Humidité
    00:00 +1°C° 0.1 mm 1 m/s 594 mmHg 70%
    01:00 +1°C° 0.1 mm 1 m/s 594 mmHg 69%
    02:00 +1°C° 0.1 mm 1 m/s 595 mmHg 69%
    03:00 +1°C° 0.1 mm 1 m/s 595 mmHg 71%
    04:00 +1°C° 0.1 mm 1 m/s 595 mmHg 72%
    05:00 0°C° 0 mm 1 m/s 594 mmHg 71%
    06:00 +1°C° 0.1 mm 1 m/s 595 mmHg 70%
    07:00 +1°C° 0.1 mm 1 m/s 596 mmHg 69%
    08:00 +1°C° 0.1 mm 0 m/s 596 mmHg 68%
    09:00 +3°C° 0.1 mm 1 m/s 596 mmHg 68%
    10:00 +3°C° 0.1 mm 1 m/s 597 mmHg 69%
    11:00 +4°C° 0 mm 1 m/s 597 mmHg 70%
    12:00 +4°C° 0.2 mm 1 m/s 597 mmHg 71%
    13:00 +4°C° 0.2 mm 1 m/s 597 mmHg 71%
    14:00 +4°C° 0.2 mm 1 m/s 597 mmHg 72%
    15:00 +4°C° 0.3 mm 1 m/s 597 mmHg 73%
    16:00 +4°C° 0.3 mm 1 m/s 597 mmHg 73%
    17:00 +3°C° 0.3 mm 1 m/s 596 mmHg 74%
    18:00 +3°C° 0.2 mm 1 m/s 596 mmHg 75%
    19:00 +3°C° 0.2 mm 1 m/s 596 mmHg 76%
    20:00 +2°C° 0.2 mm 1 m/s 596 mmHg 76%
    21:00 +2°C° 0.1 mm 1 m/s 597 mmHg 76%
    22:00 +1°C° 0.1 mm 2 m/s 597 mmHg 75%
    23:00 +1°C° 0.1 mm 2 m/s 597 mmHg 74%

    Demain, 22 Mars, Vendredi

    Heure Température Précipitation Vent Pression Humidité
    00:00 +1°C° 0 mm 2 m/s 596 mmHg 74%
    01:00 -1°C° 0 mm 2 m/s 596 mmHg 74%
    02:00 -1°C° 0 mm 2 m/s 596 mmHg 73%
    03:00 -1°C° 0.1 mm 2 m/s 596 mmHg 73%
    04:00 -1°C° 0.1 mm 2 m/s 596 mmHg 73%
    05:00 -1°C° 0.1 mm 2 m/s 596 mmHg 73%
    06:00 +1°C° 0.1 mm 2 m/s 596 mmHg 72%
    07:00 +1°C° 0.1 mm 2 m/s 597 mmHg 71%
    08:00 +2°C° 0.1 mm 2 m/s 597 mmHg 70%
    09:00 +3°C° 0 mm 2 m/s 597 mmHg 67%
    10:00 +3°C° 0 mm 2 m/s 597 mmHg 64%
    11:00 +4°C° 0 mm 2 m/s 597 mmHg 61%
    12:00 +5°C° 0 mm 1 m/s 597 mmHg 60%
    13:00 +6°C° 0 mm 1 m/s 597 mmHg 60%
    14:00 +6°C° 0 mm 1 m/s 597 mmHg 59%
    15:00 +6°C° 0.1 mm 1 m/s 596 mmHg 61%
    16:00 +5°C° 0.1 mm 1 m/s 596 mmHg 63%
    17:00 +5°C° 0.1 mm 1 m/s 596 mmHg 65%
    18:00 +4°C° 0.1 mm 1 m/s 596 mmHg 67%
    19:00 +4°C° 0.1 mm 1 m/s 596 mmHg 69%
    20:00 +2°C° 0.1 mm 2 m/s 595 mmHg 71%
    21:00 +1°C° 0 mm 2 m/s 595 mmHg 68%
    22:00 0°C° 0 mm 3 m/s 595 mmHg 65%
    23:00 -1°C° 0 mm 3 m/s 595 mmHg 62%

    Après-demain, 23 Mars, Samedi

    Heure Température Précipitation Vent Pression Humidité
    00:00 -1°C° 0 mm 3 m/s 594 mmHg 59%
    01:00 -1°C° 0 mm 3 m/s 594 mmHg 56%
    02:00 -1°C° 0 mm 3 m/s 594 mmHg 53%
    03:00 -1°C° 0 mm 3 m/s 594 mmHg 52%
    04:00 -1°C° 0 mm 3 m/s 594 mmHg 51%
    05:00 -1°C° 0 mm 3 m/s 594 mmHg 50%
    06:00 0°C° 0 mm 3 m/s 594 mmHg 51%
    07:00 +1°C° 0 mm 3 m/s 594 mmHg 52%
    08:00 +1°C° 0 mm 3 m/s 595 mmHg 52%
    09:00 +2°C° 0.1 mm 3 m/s 595 mmHg 53%
    10:00 +3°C° 0.1 mm 3 m/s 596 mmHg 54%
    11:00 +4°C° 0.1 mm 3 m/s 596 mmHg 54%
    12:00 +5°C° 0.1 mm 2 m/s 596 mmHg 55%
    13:00 +5°C° 0.1 mm 2 m/s 596 mmHg 56%
    14:00 +6°C° 0.1 mm 1 m/s 596 mmHg 57%
    15:00 +6°C° 0.1 mm 1 m/s 596 mmHg 59%
    16:00 +5°C° 0.1 mm 1 m/s 596 mmHg 60%
    17:00 +5°C° 0.1 mm 1 m/s 595 mmHg 62%
    18:00 +4°C° 0.1 mm 1 m/s 596 mmHg 65%
    19:00 +3°C° 0.1 mm 1 m/s 596 mmHg 68%
    20:00 +3°C° 0.1 mm 1 m/s 596 mmHg 72%
    21:00 +2°C° 0.2 mm 1 m/s 596 mmHg 73%
    22:00 +2°C° 0.2 mm 1 m/s 596 mmHg 74%
    23:00 +1°C° 0.2 mm 2 m/s 596 mmHg 75%

    24 Mars, Dimanche

    Heure Température Précipitation Vent Pression Humidité
    00:00 +1°C° 0.3 mm 2 m/s 596 mmHg 76%
    01:00 +1°C° 0.3 mm 2 m/s 596 mmHg 77%
    02:00 +1°C° 0.3 mm 2 m/s 596 mmHg 78%
    03:00 -1°C° 0.2 mm 2 m/s 596 mmHg 77%
    04:00 -1°C° 0.2 mm 2 m/s 596 mmHg 76%
    05:00 -1°C° 0.2 mm 2 m/s 597 mmHg 75%
    06:00 -1°C° 0 mm 2 m/s 597 mmHg 73%
    07:00 +1°C° 0 mm 2 m/s 597 mmHg 71%
    08:00 +2°C° 0 mm 1 m/s 597 mmHg 70%
    09:00 +3°C° 0 mm 1 m/s 598 mmHg 66%
    10:00 +4°C° 0 mm 1 m/s 598 mmHg 62%
    11:00 +4°C° 0 mm 1 m/s 598 mmHg 59%
    12:00 +5°C° 0 mm 1 m/s 598 mmHg 57%
    13:00 +5°C° 0 mm 1 m/s 598 mmHg 56%
    14:00 +5°C° 0 mm 0 m/s 598 mmHg 54%
    15:00 +4°C° 0 mm 0 m/s 597 mmHg 55%
    16:00 +4°C° 0 mm 0 m/s 597 mmHg 56%
    17:00 +4°C° 0 mm 0 m/s 597 mmHg 56%
    18:00 +4°C° 0 mm 1 m/s 597 mmHg 59%
    19:00 +3°C° 0 mm 1 m/s 597 mmHg 61%
    20:00 +1°C° 0 mm 2 m/s 596 mmHg 64%
    21:00 +1°C° 0 mm 2 m/s 596 mmHg 63%
    22:00 -1°C° 0 mm 3 m/s 596 mmHg 62%
    23:00 -1°C° 0 mm 3 m/s 596 mmHg 61%

    25 Mars, Lundi

    Heure Température Précipitation Vent Pression Humidité
    00:00 -1°C° 0 mm 3 m/s 596 mmHg 61%
    01:00 -1°C° 0 mm 3 m/s 596 mmHg 61%
    02:00 -1°C° 0 mm 3 m/s 596 mmHg 60%
    03:00 -2°C° 0 mm 3 m/s 596 mmHg 61%
    04:00 -2°C° 0 mm 3 m/s 595 mmHg 61%
    05:00 -2°C° 0 mm 3 m/s 595 mmHg 61%
    06:00 -1°C° 0 mm 3 m/s 596 mmHg 60%
    07:00 0°C° 0 mm 3 m/s 596 mmHg 59%
    08:00 +1°C° 0 mm 3 m/s 597 mmHg 58%
    09:00 +2°C° 0 mm 3 m/s 597 mmHg 56%
    10:00 +4°C° 0 mm 3 m/s 597 mmHg 53%
    11:00 +6°C° 0 mm 2 m/s 598 mmHg 50%
    12:00 +6°C° 0 mm 2 m/s 598 mmHg 49%
    13:00 +7°C° 0 mm 2 m/s 597 mmHg 49%
    14:00 +8°C° 0 mm 1 m/s 597 mmHg 48%
    15:00 +8°C° 0 mm 1 m/s 597 mmHg 49%
    16:00 +7°C° 0 mm 1 m/s 597 mmHg 50%
    17:00 +7°C° 0 mm 1 m/s 597 mmHg 50%
    18:00 +5°C° 0 mm 2 m/s 596 mmHg 53%
    19:00 +4°C° 0 mm 2 m/s 596 mmHg 57%
    20:00 +1°C° 0 mm 3 m/s 596 mmHg 60%
    21:00 +1°C° 0 mm 3 m/s 596 mmHg 59%
    22:00 +1°C° 0 mm 3 m/s 596 mmHg 57%
    23:00 +1°C° 0 mm 3 m/s 595 mmHg 55%

    26 Mars, Mardi

    Heure Température Précipitation Vent Pression Humidité
    00:00 +1°C° 0 mm 3 m/s 595 mmHg 53%
    01:00 +1°C° 0 mm 3 m/s 595 mmHg 52%
    02:00 +1°C° 0 mm 3 m/s 595 mmHg 50%
    03:00 +1°C° 0 mm 3 m/s 595 mmHg 49%
    04:00 +2°C° 0 mm 2 m/s 596 mmHg 48%
    05:00 +2°C° 0 mm 2 m/s 596 mmHg 47%
    06:00 +2°C° 0 mm 3 m/s 596 mmHg 48%
    07:00 +3°C° 0 mm 3 m/s 597 mmHg 49%
    08:00 +3°C° 0 mm 3 m/s 598 mmHg 49%
    09:00 +4°C° 0 mm 3 m/s 598 mmHg 49%
    10:00 +7°C° 0 mm 3 m/s 599 mmHg 48%
    11:00 +8°C° 0 mm 3 m/s 599 mmHg 47%
    12:00 +8°C° 0 mm 3 m/s 599 mmHg 49%
    13:00 +9°C° 0 mm 3 m/s 599 mmHg 50%
    14:00 +9°C° 0 mm 2 m/s 599 mmHg 51%
    15:00 +9°C° 0 mm 2 m/s 599 mmHg 52%
    16:00 +9°C° 0 mm 2 m/s 598 mmHg 52%
    17:00 +8°C° 0 mm 2 m/s 598 mmHg 53%
    18:00 +7°C° 0 mm 3 m/s 598 mmHg 55%
    19:00 +5°C° 0 mm 4 m/s 597 mmHg 58%
    20:00 +3°C° 0 mm 5 m/s 597 mmHg 61%
    21:00 +3°C° 0 mm 5 m/s 596 mmHg 58%
    22:00 +3°C° 0 mm 5 m/s 596 mmHg 55%
    23:00 +3°C° 0 mm 5 m/s 595 mmHg 52%
    Voir plus